Погода в Рощине

Россия / Новгородская область     58°00′55″N   31°19′23″E
темп.,
°C
ветер,
м/с
пор.,
м/с
влажн.,
%
обл.,
%
осадки,
мм/ч
давл.,
гПа
погр.,
м
17 июня, чт
чт1700:00+12з22735 0.0 102113
03:00+11юз227445 0.0 102218
06:00+13зюз237726 0.0 102376
09:00+19зюз23565 0.0 1024425
12:00+22з34440 0.0 10241499
15:00+24з33410 0.0 10241878
18:00+24з2350100 0.0 10241647
21:00+19ююз2266100 0.0 102412
18 июня, пт
пт1800:00+16ю226999 0.0 102524
03:00+15ю227581 0.0 102527
06:00+15ююз267912 0.0 1026124
09:00+21ююз35596 0.0 1025424
12:00+25юз45472 0.0 10241294
15:00+27юз46430 0.0 10231787
18:00+27зюз36510 0.0 1022804
21:00+21юз22700 0.0 102214
19 июня, сб
сб1900:00+18ююз23830 0.0 102331
03:00+16юз37845 0.0 1023116
06:00+17ююз38865 0.0 1024201
09:00+22ююз46655 0.0 1024503
12:00+26юз45535 0.0 10231444
15:00+28ююз45455 0.0 10211866
18:00+28ююз35530 0.0 1020932
21:00+22ю35750 0.0 102084
20 июня, вс
вс2000:00+19ююз310770 0.0 1021174
03:00+18ююз39872 0.0 1021162
06:00+18ююз38870 0.0 1021200
09:00+23ююз46684 0.0 1021580
12:00+27ююз45552 0.0 10201510
15:00+29ююз46472 0.0 10191962
18:00+28ююз355473 0.0 10181144
21:00+23ю34742 0.0 101858
21 июня, пн
пн2100:00+22юз247464 0.0 101872
03:00+21ююз38820 0.1 1019164
06:00+20ююз25884 0.4 1020131
09:00+25ююз24690 0.4 1020524
12:00+29ююз34544 0.0 10191573
15:00+31ю34455 0.0 10182000
18:00+31юз24521 0.0 10171203
21:00+25ссз12715 0.0 101712